Regional Weather Roundup
Issued by NWS

Home | Current Version | Previous Version | Graphics & Text | Print | Product List | Glossary On
Versions: 1 2 3 4 5 6 7 8 9 10 11 12 13 14 15 16 17 18 19 20 21 22 23 24 25 26 27 28 29 30 31 32 33 34 35 36 37 38 39 40 41 42 43 44 45 46 47 48 49 50
000
ASUS43 KLMK 301902
RWRKY
KENTUCKY REGIONAL WEATHER ROUNDUP
NATIONAL WEATHER SERVICE LOUISVILLE KY
300 PM EDT TUE SEP 30 2014

NOTE "FAIR" INDICATES FEW OR NO CLOUDS BELOW 12,000 FEET
WITH NO SIGNIFICANT WEATHER AND/OR OBSTRUCTIONS TO VISIBILITY.

KYZ001>023-026-027-061>063-070>075-302000-
WESTERN AND SOUTH CENTRAL KENTUCKY

CITY           SKY/WX    TMP DP  RH WIND       PRES   REMARKS
PADUCAH        SUNNY     86  54  33 CALM      29.91F
HENDERSON      NOT AVBL
OWENSBORO      MOSUNNY   85  54  34 N8        29.91F
HOPKINSVILLE   SUNNY     85  51  30 VRB3      29.91F
BOWLING GREEN  SUNNY     85  50  29 E7        29.92F
GLASGOW        MOSUNNY   85  50  29 E7        29.92F
$$

KYZ024-025-028>034-038-045-046-053-302000-
NORTH CENTRAL KENTUCKY

CITY           SKY/WX    TMP DP  RH WIND       PRES   REMARKS
LOUISVILLE/SDF MOSUNNY   84  55  36 W8        29.89F
LOUISVILLE/LOU MOSUNNY   84  55  36 NW6       29.90F
FORT KNOX      NOT AVBL
$$

KYZ035>037-039>044-047>052-055>060-089>105-302000-
NORTHEAST KENTUCKY

CITY           SKY/WX    TMP DP  RH WIND       PRES   REMARKS
LEXINGTON      SUNNY     85  53  33 NW6       29.92F
COVINGTON      PTSUNNY   79  58  48 N10       29.91F
FRANKFORT      MOSUNNY   82  53  36 W8        29.90F
$$

KYZ054-064>069-076>088-106>120-302000-
SOUTHEAST KENTUCKY

CITY           SKY/WX    TMP DP  RH WIND       PRES   REMARKS
JACKSON        SUNNY     79  55  43 CALM      29.93F
LONDON         SUNNY     81  53  37 VRB5      29.94F
SOMERSET       SUNNY     81  48  32 NE5       29.94F
MIDDLESBORO    PTSUNNY   79  56  44 CALM      29.93F
MONTICELLO     CLEAR     84  49  29 N7        29.95F
$$




USA.gov is the U.S. government's official web portal to all federal, state and local government web resources and services.